DeFuniak Springs, FL

4:27 PM CST on December 06, 2016 (GMT -0600)
Defuniak Springs, Defuniak Sp

Weather History for K54J - March, 2014

Change the Weather History Date:

Tuesday, March 25, 2014

  Actual Average (KCEW) Record (KCEW)
Temperature  
Mean Temperature 52 °F -  
Max Temperature 62 °F 73 °F 89 °F (2007)
Min Temperature 43 °F 45 °F 25 °F (2008)
Degree Days  
Heating Degree Days 12    
Growing Degree Days 2 (Base 50)    
Moisture  
Dew Point 32 °F    
Average Humidity 48    
Maximum Humidity 88    
Minimum Humidity 23    
Precipitation  
Precipitation 0.00 in - - ()
Sea Level Pressure  
Sea Level Pressure 30.06 in    
Wind  
Wind Speed 9 mph (NW)    
Max Wind Speed 23 mph    
Max Gust Speed 33 mph    
Visibility 10 miles    
Events      
Averages and records for this station are not official NWS values.
T = Trace of Precipitation, MM = Missing Value Source: NWS Daily Summary

Daily Weather History Graph

Daily Weather History Graph

Search for Another Location

Airport or City:

Trip Planner

Search our weather history database for the weather conditions in past years. The results will help you decide how hot, cold, wet, or windy it might be!

Date:

Astronomy

Mar. 25, 2014 Rise Set
Actual Time 6:42 AM CDT 6:59 PM CDT
Civil Twilight 6:18 AM CDT 7:23 PM CDT
Nautical Twilight 5:49 AM CDT 7:51 PM CDT
Astronomical Twilight 5:21 AM CDT 8:20 PM CDT
Moon 2:43 AM CDT (3/25) 1:48 PM CDT (3/25)
Length of Visible Light 13h 05m
Length of Day
12h 17m
Waning Crescent, 32% of the Moon is Illuminated
Mar 25
Waning Crescent
Mar 30
New
Apr 7
First Quarter
Apr 15
Full
Apr 22
Last Quarter

Hourly Weather History & Observations

Time (CDT) Temp. Windchill Dew Point Humidity Pressure Visibility Wind Dir Wind Speed Gust Speed Precip Events Conditions
12:15 AM 54.3 °F - 50.0 °F 85% 30.00 in 10.0 mi Calm Calm - N/A   Overcast
12:35 AM 53.8 °F - 50.4 °F 88% 30.00 in 10.0 mi Calm Calm - N/A   Overcast
12:55 AM 54.0 °F - 50.4 °F 88% 29.99 in 10.0 mi Calm Calm - N/A   Overcast
1:15 AM 54.7 °F - 50.2 °F 85% 30.00 in 10.0 mi WNW 3.5 mph - N/A   Overcast
1:35 AM 56.3 °F - 49.3 °F 77% 29.99 in 10.0 mi WNW 5.8 mph - N/A   Overcast
1:55 AM 56.7 °F - 48.6 °F 74% 29.98 in 10.0 mi West 3.5 mph - N/A   Overcast
2:15 AM 56.8 °F - 48.2 °F 73% 29.98 in 10.0 mi West 5.8 mph - N/A   Overcast
2:35 AM 56.3 °F - 47.3 °F 72% 29.97 in 10.0 mi West 3.5 mph - N/A   Overcast
2:55 AM 55.4 °F - 47.1 °F 74% 29.96 in 10.0 mi WNW 4.6 mph - N/A   Scattered Clouds
3:15 AM 54.5 °F - 47.5 °F 77% 29.96 in 10.0 mi WNW 6.9 mph - N/A   Scattered Clouds
3:35 AM 53.6 °F - 46.9 °F 78% 29.95 in 10.0 mi NW 6.9 mph - N/A   Clear
3:55 AM 52.5 °F - 46.4 °F 80% 29.95 in 10.0 mi NW 5.8 mph - N/A   Clear
4:15 AM 51.8 °F - 45.7 °F 80% 29.95 in 10.0 mi NW 6.9 mph - N/A   Clear
4:35 AM 51.1 °F - 45.9 °F 82% 29.96 in 10.0 mi NNW 6.9 mph - N/A   Clear
4:55 AM 50.4 °F - 44.4 °F 80% 29.97 in 10.0 mi NW 6.9 mph - N/A   Clear
5:15 AM 50.0 °F - 43.0 °F 77% 29.97 in 10.0 mi NW 5.8 mph - N/A   Clear
5:30 AM 49.6 °F - 41.9 °F 75% 29.97 in 10.0 mi NW 6.9 mph - N/A   Clear
5:55 AM 48.9 °F - 40.3 °F 72% 29.98 in 10.0 mi NW 6.9 mph - N/A   Clear
6:15 AM 48.2 °F - 39.4 °F 72% 29.99 in 10.0 mi NW 8.1 mph - N/A   Clear
6:35 AM 47.7 °F - 38.3 °F 70% 30.00 in 10.0 mi NW 6.9 mph - N/A   Clear
6:55 AM 47.3 °F - 37.8 °F 69% 30.00 in 10.0 mi NW 9.2 mph - N/A   Clear
7:15 AM 46.9 °F - 37.6 °F 70% 30.01 in 10.0 mi NW 9.2 mph - N/A   Clear
7:35 AM 47.7 °F - 37.0 °F 67% 30.03 in 10.0 mi NW 9.2 mph - N/A   Clear
7:55 AM 48.7 °F - 36.3 °F 62% 30.04 in 10.0 mi NW 10.4 mph - N/A   Clear
8:15 AM 50.0 °F - 34.7 °F 56% 30.05 in 10.0 mi NW 10.4 mph 16.1 mph N/A   Clear
8:35 AM 51.3 °F - 33.3 °F 50% 30.06 in 10.0 mi NW 10.4 mph - N/A   Clear
8:55 AM 52.7 °F - 32.2 °F 46% 30.07 in 10.0 mi NW 12.7 mph 18.4 mph N/A   Clear
9:15 AM 54.3 °F - 30.0 °F 39% 30.07 in 10.0 mi NNW 11.5 mph 19.6 mph N/A   Clear
9:35 AM 54.5 °F - 27.1 °F 35% 30.07 in 10.0 mi NNW 17.3 mph 25.3 mph N/A   Clear
9:55 AM 55.4 °F - 27.5 °F 34% 30.08 in 10.0 mi NNW 19.6 mph 31.1 mph N/A   Clear
10:15 AM 56.5 °F - 28.4 °F 34% 30.09 in 10.0 mi NNW 18.4 mph 26.5 mph N/A   Clear
10:35 AM 57.2 °F - 28.6 °F 34% 30.08 in 10.0 mi NW 16.1 mph 26.5 mph N/A   Clear
10:55 AM 58.1 °F - 28.8 °F 33% 30.08 in 10.0 mi North 16.1 mph 24.2 mph N/A   Clear
11:15 AM 58.5 °F - 29.3 °F 33% 30.07 in 10.0 mi NNW 16.1 mph 23.0 mph N/A   Clear
11:35 AM 58.8 °F - 29.5 °F 33% 30.07 in 10.0 mi NNW 15.0 mph 23.0 mph N/A   Clear
11:55 AM 59.7 °F - 30.9 °F 34% 30.06 in 10.0 mi NW 15.0 mph 23.0 mph N/A   Clear
12:15 PM 60.6 °F - 27.7 °F 29% 30.06 in 10.0 mi NW 20.7 mph 28.8 mph N/A   Clear
12:35 PM 61.0 °F - 27.1 °F 28% 30.06 in 10.0 mi WNW 12.7 mph 24.2 mph N/A   Clear
1:15 PM 61.2 °F - 27.1 °F 27% 30.05 in 10.0 mi NNW 19.6 mph 26.5 mph N/A   Clear
1:35 PM 61.5 °F - 26.4 °F 26% 30.05 in 10.0 mi WNW 18.4 mph 28.8 mph N/A   Clear
1:55 PM 61.2 °F - 25.3 °F 26% 30.05 in 10.0 mi NNW 21.9 mph 31.1 mph N/A   Clear
2:15 PM 61.7 °F - 26.6 °F 26% 30.04 in 10.0 mi NNW 17.3 mph 25.3 mph N/A   Clear
2:35 PM 62.2 °F - 26.1 °F 25% 30.03 in 10.0 mi NNW 18.4 mph 26.5 mph N/A   Clear
2:55 PM 61.9 °F - 26.4 °F 26% 30.03 in 10.0 mi NNW 16.1 mph 25.3 mph N/A   Clear
3:15 PM 61.5 °F - 26.1 °F 26% 30.03 in 10.0 mi NNW 20.7 mph 28.8 mph N/A   Clear
3:35 PM 61.0 °F - 25.0 °F 25% 30.03 in 10.0 mi NNW 19.6 mph 29.9 mph N/A   Clear
3:55 PM 61.2 °F - 26.4 °F 27% 30.03 in 10.0 mi NW 16.1 mph 26.5 mph N/A   Clear
4:15 PM 61.0 °F - 25.3 °F 26% 30.04 in 10.0 mi NW 20.7 mph 33.4 mph N/A   Clear
4:35 PM 60.4 °F - 22.5 °F 23% 30.05 in 10.0 mi NNW 18.4 mph 29.9 mph N/A   Clear
4:55 PM 59.9 °F - 23.0 °F 24% 30.05 in 10.0 mi NW 15.0 mph 25.3 mph N/A   Clear
5:15 PM 59.0 °F - 21.6 °F 24% 30.05 in 10.0 mi NNW 23.0 mph 29.9 mph N/A   Clear
5:35 PM 58.8 °F - 21.7 °F 24% 30.06 in 10.0 mi NNW 18.4 mph 25.3 mph N/A   Clear
5:55 PM 57.2 °F - 19.4 °F 23% 30.07 in 10.0 mi NNW 20.7 mph 32.2 mph N/A   Clear
6:15 PM 56.3 °F - 19.0 °F 23% 30.08 in 10.0 mi NNW 19.6 mph 27.6 mph N/A   Clear
6:35 PM 54.7 °F - 18.7 °F 24% 30.09 in 10.0 mi NNW 20.7 mph 33.4 mph N/A   Clear
6:55 PM 53.4 °F - 20.5 °F 28% 30.10 in 10.0 mi NW 17.3 mph 21.9 mph N/A   Clear
7:15 PM 52.3 °F - 22.1 °F 31% 30.11 in 10.0 mi NW 11.5 mph 24.2 mph N/A   Clear
7:35 PM 51.6 °F - 22.8 °F 32% 30.13 in 10.0 mi NW 10.4 mph 18.4 mph N/A   Clear
7:50 PM 51.1 °F - 23.0 °F 33% 30.13 in 10.0 mi NNW 12.7 mph 18.4 mph N/A   Clear
8:15 PM 50.2 °F - 23.7 °F 36% 30.15 in 10.0 mi NNW 9.2 mph - N/A   Clear
8:35 PM 50.0 °F - 23.9 °F 36% 30.16 in 10.0 mi NNW 9.2 mph - N/A   Clear
8:55 PM 49.1 °F - 24.6 °F 38% 30.17 in 10.0 mi NW 10.4 mph - N/A   Clear
9:15 PM 48.7 °F - 24.4 °F 39% 30.18 in 10.0 mi NNW 8.1 mph - N/A   Clear
9:35 PM 48.4 °F - 23.9 °F 38% 30.19 in 10.0 mi NNW 9.2 mph - N/A   Clear
9:55 PM 47.5 °F - 24.1 °F 40% 30.21 in 10.0 mi NW 8.1 mph - N/A   Clear
10:15 PM 46.4 °F 44.3 °F 23.9 °F 41% 30.21 in 10.0 mi WNW 4.6 mph - N/A   Clear
10:35 PM 45.0 °F 43.5 °F 24.8 °F 45% 30.22 in 10.0 mi WNW 3.5 mph - N/A   Clear
10:55 PM 43.9 °F 41.3 °F 25.3 °F 48% 30.22 in 10.0 mi NW 4.6 mph - N/A   Clear
11:15 PM 44.1 °F 41.5 °F 25.0 °F 47% 30.23 in 10.0 mi NNW 4.6 mph - N/A   Clear
11:35 PM 43.3 °F 39.9 °F 25.7 °F 50% 30.24 in 10.0 mi NW 5.8 mph - N/A   Clear
11:55 PM 43.7 °F 39.1 °F 24.4 °F 47% 30.24 in 10.0 mi NNW 8.1 mph - N/A   Clear